Regional Weather Roundup
Issued by NWS

Home | Current Version | Previous Version | Text Only | Print | Product List | Glossary On
Versions: 1 2 3 4 5 6 7 8 9 10 11 12 13 14 15 16 17 18 19 20 21 22 23 24 25 26 27 28 29 30 31 32 33 34 35 36 37 38 39 40 41 42 43 44 45 46 47 48 49 50
000
ASUS43 KLMK 200110
RWRKY
KENTUCKY REGIONAL WEATHER ROUNDUP
NATIONAL WEATHER SERVICE LOUISVILLE KY
900 PM EDT SUN APR 19 2015

NOTE "FAIR" INDICATES FEW OR NO CLOUDS BELOW 12,000 FEET
WITH NO SIGNIFICANT WEATHER AND/OR OBSTRUCTIONS TO VISIBILITY.

KYZ001>023-026-027-061>063-070>075-200200-
WESTERN AND SOUTH CENTRAL KENTUCKY

CITY           SKY/WX    TMP DP  RH WIND       PRES   REMARKS
PADUCAH        CLOUDY    64  60  87 CALM      29.54R
HENDERSON      CLOUDY    63  57  82 W12G17    29.50R
OWENSBORO      CLOUDY    64  62  93 W10       29.51R
HOPKINSVILLE   MOCLDY    64  62  94 SW8       29.56R
BOWLING GREEN  LGT RAIN  65  60  84 SW13      29.57R
GLASGOW        CLOUDY    65  60  83 SW16      29.57R
$$

KYZ024-025-028>034-038-045-046-053-200200-
NORTH CENTRAL KENTUCKY

CITY           SKY/WX    TMP DP  RH WIND       PRES   REMARKS
LOUISVILLE/SDF MOCLDY    66  61  84 SW13      29.45S
LOUISVILLE/LOU CLOUDY    65  61  87 S12G17    29.46S
FORT KNOX      MOCLDY    64  61  88 SW16G25   29.47S
$$

KYZ035>037-039>044-047>052-055>060-089>105-200200-
NORTHEAST KENTUCKY

CITY           SKY/WX    TMP DP  RH WIND       PRES   REMARKS
LEXINGTON      CLOUDY    64  60  87 SW15      29.52R
COVINGTON      CLOUDY    64  62  93 SW6       29.45F
FRANKFORT      CLOUDY    64  60  87 SW13      29.48R
$$

KYZ054-064>069-076>088-106>120-200200-
SOUTHEAST KENTUCKY

CITY           SKY/WX    TMP DP  RH WIND       PRES   REMARKS
JACKSON        MOCLDY    68  58  70 VRB5      29.59R
LONDON         HVY RAIN  68  58  70 W14       29.60R
SOMERSET       LGT RAIN  61  61 100 S7        29.60S
MIDDLESBORO    CLOUDY    68  61  78 S7        29.62R
MONTICELLO     CLOUDY    64  63  97 S7        29.62R
$$



USA.gov is the U.S. government's official web portal to all federal, state and local government web resources and services.